Powrót do katalogu

KUIPER-00090

AktywnyŁącznośćLEO
NORAD 64835·PAYLOAD·🇺🇸 United States

Wystrzelony Jul 16, 2025 z Cape Canaveral Space Force Station

Loading…

Następne Przeloty (najbliższe 24 godziny)

TLE

ŚwieżeSource: CelesTrak SupGP

Epoka: Sep 14, 2026, 16:40 UTC

1 64835C 25151V   26257.69445602  .00002508  00000+0  32827-3 0  2574
2 64835  51.8971 162.3127 0000973  96.1658 239.4476 14.79931381    17

Śledź KUIPER-00090 w czasie rzeczywistym z AllMySat

Download on the App Store